                ,  0.945,  1.145,  1.345,  1.545,  1.745,  1.945,  2.145,  2.345,  2.545,  2.745,  2.945,  3.145,  3.345,  3.545,  3.745,  3.945,  4.145,  4.345,  4.545,  4.745,  4.945,  5.145,  5.345,  5.545,  5.745,  5.945,  6.145,  6.345,  6.545,  6.745,  6.945,  7.145,  7.345,  7.545,  7.745,  7.945,  8.145,  8.345,  8.545,  8.745,  8.945,  9.145,  9.345,  9.545,  9.745,  9.945
2000/05/31 00:00,  999.0,  999.0,  999.0,  999.0,  999.0,  999.0,  999.0,  999.0,  999.0,  999.0,  999.0,  999.0,  999.0,  999.0,  999.0,  999.0,  999.0,  999.0,  999.0,  999.0,  999.0,  999.0,  999.0,  999.0,  999.0,  999.0,  999.0,  999.0,  999.0,  999.0,  999.0,  999.0,  999.0,  999.0,  999.0,  999.0,  999.0,  999.0,  999.0,  999.0,  999.0,  999.0,  999.0,  999.0,  999.0,  999.0
2000/05/31 00:10,  999.0,  999.0,  999.0,  999.0,  999.0,  999.0,    0.1,  999.0,    0.2,    0.2,  999.0,  999.0,  999.0,  999.0,   -0.2,   -0.5,   -0.8,   -0.9,   -1.1,  999.0,  999.0,   -1.0,   -1.1,   -1.0,   -0.9,   -0.9,   -0.8,   -0.8,   -0.8,   -0.7,   -0.5,   -0.2,   -0.7,   -0.5,  999.0,  999.0,  999.0,  999.0,  999.0,  999.0,  999.0,  999.0,  999.0,  999.0,  999.0,  999.0
2000/05/31 00:20,  999.0,    0.0,  999.0,    0.2,    0.7,    0.2,    0.4,  999.0,    0.3,  999.0,  999.0,  999.0,   -0.0,  999.0,   -0.1,    0.2,   -0.2,   -0.4,   -0.9,   -1.0,   -0.9,   -0.8,   -1.3,   -1.1,   -1.2,   -1.0,   -1.1,   -0.9,   -0.9,   -0.7,   -0.3,   -0.0,  999.0,  999.0,  999.0,    0.2,    0.1,  999.0,  999.0,  999.0,  999.0,  999.0,  999.0,  999.0,  999.0,  999.0
2000/05/31 00:30,  999.0,  999.0,  999.0,   -0.1,  999.0,    0.1,  999.0,  999.0,  999.0,    0.1,    0.2,  999.0,  999.0,   -0.0,    0.0,    0.0,   -0.0,   -0.0,   -0.3,   -0.5,   -0.8,   -0.9,   -0.9,   -0.7,   -0.5,   -0.4,   -0.3,   -0.5,   -0.6,   -0.5,   -0.3,   -0.3,  999.0,  999.0,  999.0,    0.1,  999.0,  999.0,  999.0,  999.0,  999.0,  999.0,  999.0,   -0.7,  999.0,  999.0
2000/05/31 00:40,  999.0,  999.0,  999.0,  999.0,    0.2,  999.0,    0.3,    0.1,  999.0,   -0.0,   -0.0,  999.0,   -0.0,   -0.0,   -0.0,   -0.3,   -0.3,   -0.1,   -0.1,   -0.2,   -0.4,   -0.6,   -0.6,   -0.2,   -0.0,    0.1,  999.0,  999.0,  999.0,  999.0,  999.0,   -0.1,  999.0,   -0.1,    0.3,  999.0,  999.0,  999.0,  999.0,  999.0,  999.0,   -0.4,  999.0,  999.0,   -0.5,   -0.4
2000/05/31 00:50,    0.0,   -0.1,   -0.0,  999.0,    0.1,    0.1,  999.0,   -0.2,  999.0,   -0.1,   -0.1,   -0.0,  999.0,   -0.0,  999.0,   -0.0,    0.0,   -0.3,   -0.4,   -0.8,   -0.7,   -0.7,   -0.5,   -0.3,    0.0,  999.0,    0.1,  999.0,  999.0,  999.0,  999.0,  999.0,  999.0,  999.0,  999.0,  999.0,  999.0,  999.0,  999.0,  999.0,  999.0,  999.0,  999.0,  999.0,  999.0,  999.0
2000/05/31 01:00,    0.0,    0.1,    0.0,    0.2,  999.0,  999.0,   -0.1,    0.1,  999.0,   -0.1,  999.0,  999.0,   -0.2,  999.0,   -0.1,   -0.4,   -0.5,   -0.8,   -0.7,   -0.6,  999.0,   -0.3,   -0.3,   -0.1,    0.0,   -0.1,    0.0,  999.0,    0.2,   -0.1,  999.0,  999.0,  999.0,  999.0,  999.0,  999.0,  999.0,  999.0,  999.0,  999.0,  999.0,  999.0,  999.0,  999.0,  999.0,  999.0
2000/05/31 01:10,  999.0,    0.0,  999.0,    0.1,    0.1,    0.1,   -0.2,  999.0,   -0.0,    0.2,  999.0,   -0.0,  999.0,  999.0,  999.0,    0.0,  999.0,  999.0,   -0.5,    0.0,    0.1,    0.1,    0.2,  999.0,    0.1,    0.1,  999.0,  999.0,  999.0,    0.1,  999.0,  999.0,  999.0,  999.0,  999.0,  999.0,  999.0,  999.0,  999.0,  999.0,  999.0,  999.0,  999.0,  999.0,  999.0,  999.0
2000/05/31 01:20,    0.3,  999.0,    0.0,   -0.0,    0.1,    0.1,  999.0,    0.1,    0.0,    0.2,  999.0,  999.0,  999.0,   -0.1,  999.0,   -0.3,  999.0,  999.0,    0.0,    0.1,    0.2,    0.1,  999.0,    0.1,    0.1,    0.1,  999.0,  999.0,  999.0,  999.0,  999.0,  999.0,  999.0,  999.0,  999.0,  999.0,  999.0,  999.0,  999.0,  999.0,  999.0,  999.0,  999.0,  999.0,  999.0,  999.0
2000/05/31 01:30,    0.4,  999.0,   -0.1,    0.1,    0.0,   -0.0,    0.1,    0.0,   -0.4,  999.0,  999.0,   -0.3,   -0.1,  999.0,   -0.1,  999.0,  999.0,  999.0,  999.0,   -0.4,   -0.8,   -0.2,    0.0,   -0.1,   -0.3,    0.0,    0.2,  999.0,  999.0,    0.2,  999.0,  999.0,  999.0,  999.0,  999.0,  999.0,  999.0,  999.0,  999.0,  999.0,  999.0,  999.0,  999.0,  999.0,  999.0,  999.0
2000/05/31 01:40,  999.0,   -0.2,    0.1,    0.2,    0.1,  999.0,  999.0,   -0.0,  999.0,   -0.3,  999.0,   -0.3,   -0.3,  999.0,   -0.2,   -0.4,   -1.2,  999.0,  999.0,    0.2,    0.2,    0.2,    0.0,   -0.2,    0.1,    0.2,  999.0,  999.0,  999.0,    0.1,  999.0,  999.0,  999.0,  999.0,  999.0,  999.0,  999.0,  999.0,  999.0,  999.0,  999.0,  999.0,  999.0,  999.0,  999.0,  999.0
2000/05/31 01:50,  999.0,  999.0,  999.0,  999.0,  999.0,   -0.4,  999.0,   -0.3,   -0.3,   -0.3,  999.0,  999.0,  999.0,    0.0,    0.0,   -0.1,   -0.0,    0.1,  999.0,  999.0,  999.0,  999.0,  999.0,  999.0,  999.0,  999.0,  999.0,  999.0,  999.0,  999.0,  999.0,  999.0,  999.0,  999.0,  999.0,   -0.5,   -0.7,   -0.6,   -0.6,   -0.7,   -0.6,   -0.7,   -0.7,   -0.7,   -0.7,   -0.7
2000/05/31 02:00,  999.0,    0.5,  999.0,  999.0,   -0.1,   -0.4,   -0.3,   -0.2,   -0.3,   -0.2,  999.0,   -0.1,   -0.0,  999.0,   -0.1,    0.0,    0.1,  999.0,  999.0,  999.0,  999.0,  999.0,  999.0,  999.0,  999.0,  999.0,  999.0,  999.0,  999.0,  999.0,  999.0,  999.0,  999.0,  999.0,  999.0,   -0.5,   -0.6,   -0.5,   -0.4,  999.0,  999.0,  999.0,   -0.5,   -0.5,   -0.6,   -0.5
2000/05/31 02:10,  999.0,  999.0,  999.0,  999.0,   -0.1,  999.0,  999.0,   -0.2,  999.0,  999.0,  999.0,    0.1,    0.1,    0.0,    0.1,  999.0,  999.0,  999.0,  999.0,  999.0,  999.0,  999.0,  999.0,  999.0,  999.0,  999.0,  999.0,  999.0,   -0.2,   -0.2,  999.0,  999.0,  999.0,  999.0,  999.0,  999.0,   -1.3,   -1.4,   -1.3,   -1.2,   -1.0,   -1.1,   -0.9,   -1.1,   -0.9,   -0.6
2000/05/31 02:20,  999.0,  999.0,  999.0,  999.0,  999.0,  999.0,   -0.1,    0.1,  999.0,    0.2,    0.3,  999.0,    0.1,    0.1,  999.0,  999.0,   -0.5,   -0.4,   -0.1,   -0.2,   -0.0,   -0.0,   -0.1,  999.0,  999.0,  999.0,  999.0,    0.0,   -0.1,  999.0,  999.0,   -0.7,   -0.8,   -0.8,   -0.9,   -1.0,   -1.0,   -1.0,   -1.0,   -0.9,   -0.9,   -0.9,   -0.8,   -0.9,   -0.9,   -0.7
2000/05/31 02:30,    0.1,  999.0,    0.1,  999.0,   -0.1,   -0.2,   -0.1,   -0.1,  999.0,  999.0,  999.0,    0.1,    0.1,  999.0,  999.0,   -0.5,   -0.6,   -0.7,   -0.7,   -0.3,   -0.3,  999.0,  999.0,  999.0,  999.0,  999.0,   -0.4,   -0.7,   -0.3,   -0.5,   -0.6,   -0.6,   -0.7,   -0.7,   -0.6,   -0.7,   -0.6,   -0.6,   -0.5,   -0.7,  999.0,  999.0,  999.0,   -0.5,   -0.6,   -0.6
2000/05/31 02:40,  999.0,    0.2,  999.0,    0.1,    0.1,    0.2,    0.2,    0.3,    0.3,  999.0,  999.0,    0.0,  999.0,  999.0,   -0.1,   -0.4,   -0.2,   -0.0,   -0.1,   -0.2,   -0.1,  999.0,  999.0,  999.0,  999.0,  999.0,   -0.1,  999.0,  999.0,  999.0,  999.0,  999.0,  999.0,   -0.5,   -0.4,   -0.5,   -0.6,   -0.5,  999.0,  999.0,  999.0,  999.0,  999.0,  999.0,  999.0,   -0.4
2000/05/31 02:50,  999.0,  999.0,  999.0,  999.0,  999.0,  999.0,  999.0,   -0.1,  999.0,  999.0,  999.0,  999.0,   -0.8,   -0.9,   -1.3,   -1.1,   -0.6,   -0.5,   -0.2,   -0.2,    0.0,    0.1,  999.0,  999.0,  999.0,  999.0,  999.0,   -0.3,   -0.5,   -0.5,   -0.6,   -0.6,   -0.7,   -0.8,   -0.8,   -0.7,   -0.7,   -0.8,   -0.7,   -0.7,   -0.6,   -0.6,   -0.5,   -0.8,  999.0,  999.0
2000/05/31 03:00,    0.0,  999.0,  999.0,  999.0,  999.0,  999.0,  999.0,    0.2,    0.2,  999.0,    0.1,   -1.2,   -1.0,   -1.6,   -1.3,   -0.9,   -1.1,   -1.4,   -0.6,   -0.5,   -0.3,   -0.6,   -0.5,   -0.8,   -0.6,   -0.8,   -0.7,   -0.6,   -0.7,   -0.7,   -0.8,   -0.8,   -0.8,   -0.9,   -0.9,   -0.8,   -0.8,   -0.8,   -0.7,   -0.6,   -0.5,   -0.5,   -0.6,  999.0,  999.0,  999.0
2000/05/31 03:10,   -0.1,    0.1,  999.0,  999.0,   -1.0,   -1.6,   -1.8,   -1.8,   -2.5,   -3.3,   -3.3,   -3.4,   -3.1,   -3.3,   -3.3,   -3.2,   -3.3,   -2.9,   -1.6,   -1.1,   -1.0,   -0.8,   -0.8,   -0.8,   -0.8,   -0.7,   -0.7,   -0.7,   -0.8,   -0.8,   -0.9,   -0.8,   -0.7,   -0.8,   -0.8,   -0.8,  999.0,  999.0,  999.0,  999.0,  999.0,  999.0,  999.0,  999.0,  999.0,  999.0
2000/05/31 03:20,  999.0,    0.5,   -1.3,   -3.1,   -2.8,   -2.9,   -3.2,   -3.0,   -3.0,   -3.1,   -3.1,   -3.1,   -3.0,   -2.9,   -2.9,   -2.7,   -2.9,   -2.6,   -1.4,   -1.1,   -1.1,   -1.0,   -1.0,   -1.0,   -0.9,   -0.8,   -0.8,   -0.9,   -0.8,   -0.8,   -0.8,   -0.7,   -0.7,   -0.7,   -0.7,   -0.6,  999.0,  999.0,  999.0,  999.0,  999.0,  999.0,  999.0,  999.0,  999.0,  999.0
2000/05/31 03:30,  999.0,  999.0,  999.0,  999.0,  999.0,  999.0,  999.0,   -2.4,   -2.3,   -2.2,   -2.3,   -2.3,   -2.4,   -2.5,   -2.5,   -2.5,   -2.4,   -2.3,   -1.4,   -1.1,   -1.0,   -0.9,   -0.8,   -0.8,   -0.8,   -0.8,   -0.8,   -0.8,   -0.8,   -0.8,   -0.9,   -0.9,   -0.8,   -0.9,   -0.9,   -0.9,   -0.9,   -0.9,   -0.8,   -0.8,   -0.9,   -0.8,  999.0,  999.0,  999.0,  999.0
2000/05/31 03:40,  999.0,  999.0,  999.0,  999.0,    0.1,  999.0,  999.0,  999.0,   -2.0,   -2.4,   -2.1,   -2.2,   -2.1,   -2.3,   -2.2,   -2.3,   -2.3,   -2.3,   -1.4,   -1.0,   -1.1,   -1.0,   -0.9,   -1.0,   -0.9,   -1.0,   -1.0,   -1.0,   -1.1,   -1.1,   -1.0,   -1.0,   -1.0,   -1.0,   -1.0,   -0.9,   -0.8,   -0.7,   -0.4,  999.0,  999.0,  999.0,  999.0,  999.0,  999.0,  999.0
2000/05/31 03:50,  999.0,  999.0,  999.0,  999.0,   -3.2,   -3.1,   -3.2,   -3.2,   -3.2,   -3.0,   -2.9,   -3.0,   -3.0,   -3.0,   -3.0,   -3.2,   -3.1,   -3.0,   -1.6,   -1.1,   -1.1,   -1.0,   -1.0,   -0.9,  999.0,  999.0,   -1.3,   -1.2,   -1.1,   -1.1,   -1.1,   -1.1,   -1.1,   -1.1,   -1.1,   -1.0,   -1.0,   -0.9,   -0.9,   -0.8,   -0.7,   -0.8,  999.0,  999.0,  999.0,  999.0
2000/05/31 04:00,   -3.4,   -3.8,   -3.4,  999.0,   -3.6,   -3.4,   -3.4,   -3.5,   -3.4,   -3.4,   -3.2,   -3.0,   -3.2,   -3.4,   -3.3,   -3.3,   -3.4,   -2.8,   -1.5,   -1.2,   -0.9,   -0.8,   -0.7,   -0.8,   -0.9,   -1.0,   -1.0,   -1.0,   -1.0,   -0.9,   -0.9,   -0.9,   -0.9,   -1.0,   -0.9,   -0.9,   -0.9,   -0.9,   -0.9,   -0.7,   -0.8,   -0.8,   -0.7,   -0.7,  999.0,  999.0
2000/05/31 04:10,   -3.8,   -3.9,   -3.7,   -3.9,   -4.1,   -3.9,   -3.9,   -3.9,   -3.8,   -4.1,   -4.0,   -4.2,   -4.5,   -4.2,   -4.1,   -4.1,   -4.1,   -3.3,   -1.6,   -1.2,   -1.1,  999.0,   -1.1,   -1.1,   -1.0,   -1.1,   -1.1,   -1.1,   -1.1,   -1.2,   -1.1,   -1.1,   -1.2,   -1.2,   -1.2,   -1.1,   -1.1,   -1.1,   -1.0,   -0.9,   -0.8,   -0.8,   -0.8,   -0.7,  999.0,  999.0
2000/05/31 04:20,   -3.8,   -3.7,   -3.6,   -5.0,   -4.3,   -4.4,   -4.6,   -4.7,   -4.9,   -5.1,   -5.2,   -5.3,   -5.7,   -5.7,   -6.0,   -6.2,   -5.6,   -3.1,   -2.0,   -1.8,  999.0,   -1.5,   -1.4,  999.0,   -1.3,   -1.3,   -1.3,   -1.2,   -1.2,   -1.2,   -1.1,   -1.1,   -1.0,   -1.1,   -1.1,   -1.0,   -1.0,   -1.0,   -1.0,   -0.9,   -0.9,   -0.8,   -0.8,   -0.7,   -0.7,   -0.5
2000/05/31 04:30,   -5.0,   -4.9,   -4.8,   -5.1,   -4.9,   -5.0,   -5.3,   -5.3,   -5.5,   -6.0,   -6.3,   -6.6,   -6.9,   -7.1,   -7.2,   -7.7,   -6.0,   -2.8,   -2.0,   -1.7,   -1.4,   -1.4,   -1.3,   -1.3,   -1.3,   -1.3,   -1.3,   -1.2,   -1.0,   -0.9,   -0.7,   -0.7,   -0.7,   -0.8,   -0.8,   -0.9,   -1.0,   -1.0,   -1.0,   -1.0,   -0.9,   -0.9,   -0.8,   -0.9,   -0.8,   -0.8
2000/05/31 04:40,   -6.2,   -6.2,   -6.3,   -6.5,   -6.7,   -7.0,   -7.1,   -7.4,   -7.6,   -7.9,   -8.1,   -8.2,   -8.2,   -8.3,   -8.4,   -8.3,   -6.1,  999.0,   -2.0,   -1.7,   -1.5,  999.0,   -1.4,   -1.4,   -1.4,   -1.3,   -1.2,   -1.2,   -1.0,   -1.0,   -0.8,   -0.7,   -0.8,   -1.0,   -1.1,   -1.1,   -1.1,   -1.1,   -1.1,   -1.0,   -1.0,   -1.0,   -1.0,   -1.0,   -0.9,   -0.9
2000/05/31 04:50,   -5.3,   -5.0,   -4.9,   -4.6,   -5.1,   -4.5,   -4.3,   -5.2,   -4.9,   -4.8,   -4.5,   -4.6,   -4.6,   -4.7,   -4.6,   -4.6,   -4.6,   -3.5,   -2.0,   -1.7,   -1.5,   -1.4,   -1.4,   -1.4,   -1.5,   -1.5,   -1.4,   -1.3,   -1.1,   -1.1,   -0.9,   -0.7,   -0.8,   -0.9,   -0.9,   -0.9,   -1.0,   -0.9,   -0.9,   -0.9,   -0.8,   -0.9,   -0.9,   -0.8,  999.0,   -0.8
2000/05/31 05:00,   -4.5,   -4.5,   -4.5,   -4.6,  999.0,   -4.0,   -3.7,   -4.0,   -4.8,   -4.5,   -4.8,   -3.7,   -3.4,   -2.9,   -4.5,   -3.5,   -3.6,   -3.0,   -1.5,   -1.2,   -1.0,   -0.7,   -0.6,   -0.6,   -0.5,   -0.8,   -0.4,   -0.6,   -0.4,   -0.4,  999.0,  999.0,  999.0,   -0.5,  999.0,  999.0,  999.0,  999.0,  999.0,  999.0,   -0.8,   -0.8,   -1.0,  999.0,  999.0,  999.0
2000/05/31 05:10,   -2.5,   -2.2,   -2.2,   -2.2,   -1.8,   -1.3,   -1.3,   -1.3,   -1.7,   -1.3,   -0.6,   -0.1,   -0.1,   -0.0,   -0.7,   -0.7,   -0.8,   -0.7,   -0.6,   -0.4,   -0.3,   -0.3,   -0.4,  999.0,  999.0,  999.0,  999.0,  999.0,  999.0,  999.0,  999.0,  999.0,  999.0,  999.0,   -0.6,  999.0,   -0.8,   -0.7,   -0.8,   -0.8,   -1.0,  999.0,  999.0,  999.0,  999.0,  999.0
2000/05/31 05:20,  999.0,  999.0,  999.0,  999.0,   -1.5,   -1.4,   -1.2,   -0.6,  999.0,   -0.8,   -0.4,   -0.4,   -0.3,   -0.3,   -0.3,   -0.3,   -0.4,   -0.3,   -0.5,   -0.4,   -0.4,   -0.3,   -0.4,   -0.5,   -0.6,  999.0,  999.0,  999.0,  999.0,  999.0,  999.0,  999.0,  999.0,   -0.8,   -0.9,   -0.9,  999.0,  999.0,  999.0,  999.0,  999.0,  999.0,   -0.8,  999.0,  999.0,  999.0
2000/05/31 05:30,   -3.2,   -3.5,  999.0,   -2.9,   -2.4,   -2.2,   -2.4,   -2.5,   -2.0,   -1.4,   -2.0,   -1.6,   -1.4,   -2.0,   -2.3,   -3.0,   -3.0,   -2.8,   -2.3,   -1.3,   -1.0,   -1.0,   -0.9,   -0.7,   -0.5,   -0.7,   -0.3,   -0.3,   -0.3,   -0.6,   -0.7,  999.0,  999.0,  999.0,  999.0,  999.0,  999.0,  999.0,  999.0,  999.0,   -0.6,   -0.5,   -0.6,  999.0,  999.0,  999.0
2000/05/31 05:40,   -4.4,   -4.1,  999.0,  999.0,   -4.1,   -3.9,   -3.8,   -3.4,  999.0,   -3.0,   -2.8,   -2.9,   -3.3,   -3.6,   -3.2,   -3.3,   -2.9,   -2.6,   -2.2,   -1.1,   -0.9,   -0.6,   -0.7,   -0.7,  999.0,  999.0,   -0.3,   -0.2,  999.0,  999.0,  999.0,  999.0,  999.0,   -1.0,   -0.9,   -1.1,   -1.0,   -0.8,   -0.7,   -0.7,   -0.8,   -0.7,   -0.6,   -0.7,  999.0,  999.0
2000/05/31 05:50,   -4.8,   -4.4,   -4.8,   -4.6,   -4.1,   -5.2,   -4.2,   -4.1,   -3.7,   -2.7,   -3.2,   -2.9,   -2.1,   -2.2,   -1.9,   -2.0,   -1.4,   -1.2,   -1.7,   -1.5,   -1.2,   -1.0,   -1.1,   -1.0,   -1.2,   -1.3,   -1.4,   -1.3,   -1.2,   -1.1,   -1.1,   -1.0,   -0.8,   -0.8,   -0.8,   -0.7,  999.0,   -1.0,   -0.8,   -0.9,   -0.9,   -0.8,   -0.6,   -0.5,   -0.5,  999.0
2000/05/31 06:00,   -3.3,   -3.0,   -2.7,   -2.3,   -2.0,   -1.8,   -1.5,   -1.4,   -1.2,   -1.0,   -0.7,   -0.5,   -0.7,   -0.5,   -0.3,   -0.5,   -0.0,   -1.1,   -1.4,   -1.4,   -1.3,   -1.3,   -1.4,   -1.4,   -1.3,   -1.4,   -1.3,   -1.2,   -1.1,   -1.2,   -1.2,   -1.0,   -0.7,  999.0,  999.0,  999.0,  999.0,  999.0,  999.0,  999.0,  999.0,  999.0,  999.0,  999.0,  999.0,  999.0
2000/05/31 06:10,  999.0,   -2.4,   -2.1,   -1.8,   -2.1,   -1.8,   -1.8,   -1.5,   -1.3,   -1.1,   -1.1,   -0.9,   -0.6,   -1.9,   -1.8,   -2.3,   -3.7,   -3.5,  999.0,   -1.8,   -1.7,   -1.5,   -1.2,   -1.1,   -1.0,   -1.1,   -1.3,   -1.3,   -1.3,   -1.2,   -1.1,   -0.9,   -0.8,   -0.9,   -0.7,   -1.0,   -0.5,  999.0,  999.0,  999.0,  999.0,  999.0,  999.0,  999.0,  999.0,  999.0
2000/05/31 06:20,   -2.9,   -3.5,  999.0,  999.0,   -2.5,   -1.7,   -1.7,   -3.1,   -1.2,   -3.4,   -3.3,   -1.1,   -3.5,  999.0,   -5.4,   -5.3,   -5.2,   -4.7,   -2.5,   -1.9,   -1.5,   -1.4,   -1.4,   -1.3,   -1.3,   -1.2,   -1.1,   -1.1,   -1.1,   -1.1,   -1.1,   -1.1,   -1.1,   -1.1,   -1.0,   -1.0,   -0.9,   -1.0,   -0.9,   -0.8,   -0.7,   -0.7,   -0.5,  999.0,  999.0,  999.0
2000/05/31 06:30,   -4.6,  999.0,   -5.5,   -5.6,   -5.4,   -5.4,   -5.1,   -5.3,   -5.3,   -5.2,   -5.3,   -5.3,   -5.4,   -5.3,   -5.4,   -5.7,   -5.6,   -5.2,   -2.1,   -1.7,   -1.5,   -1.5,   -1.4,   -1.3,   -1.3,   -1.4,   -1.4,   -1.4,   -1.3,   -1.2,   -1.2,   -1.2,   -1.2,   -1.2,   -1.2,   -1.1,   -1.1,   -1.0,   -1.0,   -0.9,   -0.8,   -0.8,   -0.7,   -0.6,   -0.6,   -0.6
2000/05/31 06:40,   -4.9,   -4.8,   -4.7,  999.0,   -4.1,   -4.0,   -4.2,   -4.1,   -4.2,   -4.4,   -4.9,   -4.9,   -4.6,   -4.5,   -4.9,   -4.5,   -4.7,   -4.6,   -2.1,   -1.6,   -1.4,   -1.4,   -1.3,   -1.3,   -1.2,   -1.3,   -1.2,   -1.1,   -1.1,   -1.1,   -1.0,   -1.0,   -1.0,   -1.1,   -1.0,   -1.0,   -0.9,   -0.9,   -0.8,   -0.9,   -0.8,   -0.7,   -0.9,  999.0,   -0.7,  999.0
2000/05/31 06:50,  999.0,  999.0,   -4.1,   -3.2,   -2.7,   -3.6,  999.0,   -3.7,   -3.7,   -3.3,   -3.5,  999.0,   -3.6,   -3.8,   -3.7,   -4.0,   -4.3,   -4.0,   -2.7,   -1.7,   -1.5,   -1.1,   -0.8,   -1.0,   -1.1,   -1.0,   -0.9,   -0.8,   -0.6,   -0.6,   -0.6,   -0.6,   -0.0,   -0.1,  999.0,  999.0,  999.0,  999.0,  999.0,  999.0,  999.0,  999.0,  999.0,  999.0,  999.0,  999.0
2000/05/31 07:00,   -2.6,   -2.9,   -2.5,   -2.4,   -2.0,   -2.2,  999.0,   -2.0,   -2.0,  999.0,  999.0,   -2.2,   -1.9,   -2.5,   -3.0,   -2.8,   -2.6,   -3.0,   -2.5,   -1.5,   -1.3,   -1.2,   -0.9,   -0.8,   -0.8,   -0.8,   -0.6,   -0.6,   -0.6,   -0.6,   -0.5,   -0.5,   -0.2,  999.0,  999.0,  999.0,  999.0,  999.0,  999.0,  999.0,  999.0,  999.0,  999.0,  999.0,  999.0,  999.0
2000/05/31 07:10,   -2.7,   -2.3,   -2.2,   -2.5,   -1.9,   -1.6,  999.0,  999.0,   -2.2,   -2.2,   -1.7,   -1.9,   -3.7,   -4.2,   -3.8,   -4.8,   -4.9,   -4.3,   -2.5,   -1.9,   -1.3,   -1.1,   -0.8,   -0.6,   -0.8,   -1.0,   -0.8,   -0.6,   -0.7,   -0.9,   -0.7,   -0.6,   -0.5,   -0.2,  999.0,  999.0,  999.0,  999.0,  999.0,  999.0,  999.0,  999.0,  999.0,  999.0,  999.0,  999.0
2000/05/31 07:20,   -2.7,   -2.2,   -2.1,   -2.2,   -2.0,   -1.8,   -1.7,   -1.5,   -1.4,   -1.0,  999.0,   -2.9,   -3.6,   -2.4,  999.0,   -3.1,   -3.4,   -4.1,   -2.6,   -1.6,   -1.0,   -0.9,   -0.6,   -0.6,   -0.5,   -0.7,   -0.6,   -0.4,   -0.8,   -0.8,   -0.6,   -0.8,   -0.8,   -0.6,   -0.4,  999.0,  999.0,  999.0,  999.0,  999.0,  999.0,  999.0,  999.0,  999.0,  999.0,  999.0
2000/05/31 07:30,   -1.9,   -2.0,   -1.6,   -1.5,   -1.7,   -1.7,   -1.8,   -1.7,   -1.6,   -1.4,   -1.2,   -1.2,   -1.0,   -0.9,   -0.8,   -0.6,   -0.2,   -0.3,   -0.7,   -0.6,  999.0,   -0.7,   -1.0,   -0.9,   -0.9,   -0.9,   -0.5,   -0.2,   -0.8,   -0.7,   -0.7,   -0.7,   -0.9,   -0.9,   -0.7,  999.0,  999.0,  999.0,  999.0,  999.0,  999.0,  999.0,  999.0,  999.0,  999.0,  999.0
2000/05/31 07:40,   -1.9,   -1.8,  999.0,  999.0,  999.0,  999.0,  999.0,   -2.5,   -3.4,   -3.3,   -3.3,   -3.7,   -3.7,   -4.5,   -4.6,   -4.0,   -4.1,   -3.1,   -2.4,   -1.6,   -1.5,   -1.2,   -1.0,   -1.2,   -1.4,   -1.6,   -1.5,   -1.4,   -1.2,   -1.1,   -1.0,   -0.9,   -1.0,   -1.0,   -0.9,   -0.9,   -1.2,   -0.7,  999.0,  999.0,  999.0,  999.0,  999.0,  999.0,  999.0,  999.0
2000/05/31 07:50,   -5.6,   -5.4,   -5.4,   -5.4,   -5.2,   -5.7,   -6.0,   -6.1,   -6.0,   -5.8,   -6.2,   -6.1,   -5.9,   -6.2,   -6.3,   -6.3,   -6.5,   -4.2,   -2.4,   -1.8,   -1.6,   -1.4,   -1.3,   -1.3,   -1.2,   -1.1,   -1.0,   -0.9,   -0.9,   -0.9,   -0.8,   -0.8,   -0.8,   -1.0,   -1.0,   -0.8,   -0.9,   -0.3,   -0.2,  999.0,  999.0,  999.0,  999.0,  999.0,  999.0,  999.0
2000/05/31 08:00,   -5.2,   -5.5,   -5.6,   -5.6,   -5.7,   -5.5,   -5.6,   -5.2,   -5.6,   -5.9,   -5.7,   -6.0,   -5.9,   -5.9,   -6.1,   -6.0,   -6.0,   -4.5,   -2.6,   -1.9,   -1.7,   -1.7,   -1.6,   -1.7,   -1.6,   -1.5,   -1.2,   -1.2,   -1.1,   -0.9,   -0.9,   -0.8,   -0.8,   -1.0,   -0.8,   -0.9,   -0.8,   -0.6,   -0.2,  999.0,  999.0,  999.0,  999.0,  999.0,  999.0,  999.0
2000/05/31 08:10,   -5.1,   -5.3,   -5.0,   -5.2,   -5.1,   -5.2,   -4.9,   -4.7,   -4.5,   -4.7,   -4.7,   -4.7,   -4.8,   -5.0,   -5.0,   -5.0,   -5.0,   -4.7,   -2.0,   -1.6,   -1.5,   -1.6,   -1.5,   -1.5,   -1.5,   -1.5,   -1.4,   -1.3,   -1.3,   -1.2,   -1.1,   -0.9,   -0.7,   -1.0,   -0.7,   -0.4,  999.0,  999.0,  999.0,  999.0,  999.0,  999.0,  999.0,  999.0,  999.0,  999.0
2000/05/31 08:20,   -6.1,   -6.5,   -5.6,   -5.4,   -5.3,   -5.5,   -5.2,   -5.2,   -5.5,   -5.6,   -5.1,   -5.3,   -5.8,   -5.4,   -5.7,   -5.9,   -6.0,   -5.3,   -2.5,   -1.8,   -1.5,   -1.3,   -1.3,   -1.3,   -1.4,   -1.4,   -1.4,   -1.4,   -1.2,   -1.1,   -1.1,   -0.8,   -0.9,   -1.1,   -1.1,   -0.6,   -0.3,   -0.4,  999.0,  999.0,  999.0,  999.0,  999.0,  999.0,  999.0,  999.0
2000/05/31 08:30,   -5.6,   -5.6,   -5.4,   -5.4,   -5.5,   -5.6,   -5.4,   -5.2,   -5.3,   -5.4,   -5.5,   -5.5,   -5.5,   -5.3,   -5.4,   -5.6,   -5.7,   -4.0,   -2.4,   -1.9,   -1.8,   -1.9,   -1.9,   -2.1,   -2.1,   -2.1,   -2.0,   -1.9,   -1.7,   -1.3,   -1.0,   -0.9,   -1.0,   -1.2,   -1.1,   -0.9,   -0.5,   -0.3,  999.0,  999.0,  999.0,  999.0,  999.0,  999.0,  999.0,  999.0
2000/05/31 08:40,   -6.1,   -6.4,   -5.6,   -5.4,   -5.3,   -5.4,   -5.0,   -5.7,   -5.7,   -6.1,   -6.5,   -6.4,   -6.5,   -6.5,   -6.8,   -6.6,   -6.2,   -3.2,   -2.3,   -2.2,   -1.9,   -1.7,   -1.7,   -1.8,   -1.9,   -1.9,   -1.8,   -1.7,   -1.4,   -1.2,   -1.0,   -0.8,   -0.7,   -0.7,  999.0,   -0.1,  999.0,  999.0,  999.0,  999.0,  999.0,  999.0,  999.0,  999.0,  999.0,  999.0
2000/05/31 08:50,   -6.1,   -6.1,   -6.0,   -6.1,   -6.5,   -6.1,   -6.2,   -6.1,   -6.1,   -6.5,   -6.8,  999.0,   -6.8,   -7.2,   -6.8,   -6.8,   -6.6,   -3.7,   -2.4,   -2.0,   -1.7,   -1.7,   -1.6,   -1.7,   -1.9,   -1.9,   -1.6,   -1.7,   -1.3,   -1.1,   -0.9,   -0.7,   -0.6,   -0.4,    0.0,  999.0,  999.0,  999.0,  999.0,  999.0,  999.0,  999.0,  999.0,  999.0,  999.0,  999.0
2000/05/31 09:00,   -4.7,   -4.3,  999.0,  999.0,  999.0,   -4.4,  999.0,   -3.7,   -2.0,  999.0,  999.0,   -2.7,   -2.6,   -1.2,   -2.1,   -2.4,   -2.4,   -2.3,  999.0,   -1.5,   -1.6,   -1.7,   -1.5,   -1.7,   -1.5,   -1.3,   -1.2,   -1.2,   -1.3,   -0.9,   -0.6,   -0.2,  999.0,  999.0,  999.0,  999.0,  999.0,  999.0,  999.0,  999.0,  999.0,  999.0,  999.0,  999.0,  999.0,  999.0
2000/05/31 09:10,   -2.9,   -3.0,   -2.3,   -1.4,   -2.3,   -1.9,   -1.7,   -1.5,   -1.4,   -1.3,   -0.9,   -0.4,   -1.0,   -0.4,   -0.3,   -1.0,   -0.7,  999.0,   -2.1,   -1.5,   -1.0,   -1.0,   -1.0,   -0.9,   -1.3,   -1.0,   -1.3,   -1.0,   -1.0,   -0.8,   -0.3,   -0.2,   -0.3,   -0.4,   -0.4,   -0.6,   -0.8,   -0.7,  999.0,   -0.7,  999.0,  999.0,  999.0,  999.0,  999.0,  999.0
2000/05/31 09:20,   -0.9,   -0.6,   -0.9,   -0.5,   -0.4,   -0.2,   -0.0,    0.2,    0.1,    0.1,    0.2,    0.2,    0.1,    0.1,    0.0,   -0.1,   -0.1,   -0.2,   -0.4,   -0.3,   -0.3,   -0.3,   -0.2,   -0.0,  999.0,   -0.0,   -0.1,   -0.0,   -0.9,   -0.4,  999.0,  999.0,   -0.3,  999.0,  999.0,  999.0,  999.0,  999.0,  999.0,  999.0,  999.0,  999.0,  999.0,  999.0,  999.0,  999.0
2000/05/31 09:30,  999.0,    0.0,    0.1,    0.1,    0.3,    0.3,    0.3,    0.2,    0.3,  999.0,    0.2,    0.1,    0.0,    0.1,    0.0,   -0.3,   -0.3,   -0.2,   -0.6,   -0.5,   -0.4,   -0.3,   -0.2,   -0.1,   -0.1,   -0.5,   -0.4,   -0.5,   -0.6,   -0.7,   -0.6,  999.0,  999.0,  999.0,  999.0,  999.0,  999.0,  999.0,  999.0,  999.0,  999.0,  999.0,  999.0,  999.0,  999.0,  999.0
2000/05/31 09:40,   -0.1,    0.3,    0.1,    0.1,    0.1,    0.2,    0.3,    0.1,    0.1,    0.1,  999.0,    0.1,   -0.1,   -0.2,   -0.3,   -0.2,   -0.4,   -0.2,   -0.3,   -0.4,   -0.2,   -0.1,    0.0,    0.0,  999.0,  999.0,   -0.5,  999.0,   -0.7,   -0.7,   -0.6,   -0.3,   -0.3,    0.1,  999.0,  999.0,  999.0,  999.0,  999.0,  999.0,  999.0,  999.0,  999.0,  999.0,  999.0,  999.0
2000/05/31 09:50,   -0.1,   -0.2,    0.2,    0.3,    0.3,    0.2,    0.1,    0.2,    0.1,    0.1,    0.1,   -0.4,   -0.7,   -0.6,   -0.4,   -0.3,   -0.1,   -0.4,   -0.3,   -0.1,   -0.0,    0.0,    0.0,    0.4,   -0.1,    0.0,   -0.1,  999.0,   -0.1,  999.0,  999.0,  999.0,  999.0,  999.0,  999.0,  999.0,  999.0,  999.0,  999.0,  999.0,  999.0,  999.0,  999.0,  999.0,  999.0,  999.0
2000/05/31 10:00,    0.2,   -0.1,    0.4,   -0.5,   -0.1,   -0.9,   -0.9,   -0.9,   -0.8,   -1.0,   -0.8,   -0.6,   -0.4,   -0.2,   -0.4,   -0.4,   -0.3,   -0.2,   -0.3,   -0.2,   -0.3,    0.1,  999.0,  999.0,  999.0,  999.0,  999.0,    0.0,  999.0,  999.0,  999.0,  999.0,  999.0,  999.0,  999.0,  999.0,  999.0,  999.0,  999.0,  999.0,  999.0,  999.0,  999.0,  999.0,  999.0,  999.0
2000/05/31 10:10,   -0.6,   -0.4,   -0.3,   -0.5,   -0.7,   -0.9,   -0.5,    0.1,   -0.1,    0.0,    0.1,    0.1,    0.1,    0.1,    0.1,   -0.1,   -0.1,    0.1,    0.0,   -0.0,    0.2,  999.0,  999.0,    0.1,  999.0,  999.0,    0.2,    0.0,   -0.0,  999.0,  999.0,   -0.7,   -0.9,   -1.0,  999.0,  999.0,  999.0,  999.0,  999.0,  999.0,  999.0,  999.0,  999.0,  999.0,  999.0,  999.0
2000/05/31 10:20,    0.1,    0.1,    0.1,    0.2,    0.2,    0.1,   -0.7,   -0.8,   -0.8,   -0.9,   -0.7,   -0.8,   -0.5,   -0.3,   -0.1,   -0.0,    0.0,   -0.3,   -0.3,   -0.2,   -0.1,   -0.0,    0.1,  999.0,  999.0,  999.0,    0.2,  999.0,  999.0,  999.0,  999.0,   -0.6,   -0.7,   -0.7,  999.0,   -0.9,   -0.8,  999.0,  999.0,  999.0,  999.0,  999.0,  999.0,  999.0,  999.0,  999.0
2000/05/31 10:30,  999.0,   -1.8,   -0.9,   -1.4,   -0.9,   -2.1,   -2.8,   -2.3,   -2.4,   -2.5,   -2.3,   -2.1,   -1.9,   -1.8,   -1.6,   -1.4,   -1.6,   -1.8,   -1.6,   -1.2,   -0.8,   -0.5,   -0.3,   -0.1,   -0.2,   -0.0,    0.2,  999.0,  999.0,  999.0,  999.0,  999.0,  999.0,  999.0,  999.0,  999.0,  999.0,  999.0,  999.0,  999.0,  999.0,  999.0,  999.0,  999.0,  999.0,  999.0
2000/05/31 10:40,  999.0,   -2.4,   -1.1,   -1.9,   -1.7,   -3.5,   -3.1,   -1.6,   -2.1,   -1.9,   -1.8,   -1.8,   -1.0,   -1.9,   -1.6,   -1.2,   -1.2,   -0.9,   -0.6,   -0.6,   -0.5,   -0.3,   -0.7,   -0.2,   -0.2,   -0.6,   -0.1,   -0.1,    0.2,  999.0,  999.0,  999.0,  999.0,  999.0,  999.0,  999.0,  999.0,  999.0,  999.0,  999.0,  999.0,  999.0,  999.0,  999.0,  999.0,  999.0
2000/05/31 10:50,   -2.7,   -1.9,   -1.6,   -1.5,   -1.3,   -1.2,   -1.4,   -1.2,   -1.2,   -0.9,   -1.0,   -0.8,   -0.5,   -0.4,   -0.1,   -0.1,   -0.1,   -0.3,  999.0,  999.0,    0.1,    0.2,  999.0,   -0.0,    0.1,  999.0,   -0.0,  999.0,  999.0,  999.0,  999.0,  999.0,  999.0,  999.0,  999.0,  999.0,  999.0,  999.0,  999.0,  999.0,  999.0,  999.0,  999.0,  999.0,  999.0,  999.0
2000/05/31 11:00,   -0.6,   -0.8,   -0.2,   -0.4,   -0.2,   -0.7,   -0.8,   -1.0,   -0.6,   -0.4,   -0.2,   -0.1,   -0.0,    0.0,    0.0,    0.0,   -0.0,   -0.1,   -0.1,    0.0,    0.1,    0.0,  999.0,  999.0,    0.3,    0.1,   -0.0,  999.0,  999.0,    0.2,    0.1,  999.0,  999.0,  999.0,  999.0,  999.0,  999.0,  999.0,  999.0,  999.0,  999.0,  999.0,  999.0,  999.0,  999.0,  999.0
2000/05/31 11:10,   -2.4,   -1.8,   -1.3,   -1.1,   -0.8,   -0.9,   -0.8,   -0.6,   -0.1,    0.1,    0.2,    0.1,    0.1,    0.2,    0.1,    0.1,    0.1,   -0.1,    0.1,   -0.0,    0.2,   -0.1,   -0.2,  999.0,  999.0,    0.1,    0.1,  999.0,   -0.1,   -0.0,  999.0,  999.0,  999.0,  999.0,  999.0,  999.0,  999.0,  999.0,  999.0,  999.0,  999.0,  999.0,  999.0,  999.0,  999.0,  999.0
2000/05/31 11:20,   -1.0,   -0.4,   -0.1,    0.2,    0.6,   -0.1,   -0.0,    0.2,    0.2,    0.2,    0.2,    0.1,   -0.1,   -0.0,   -0.4,   -0.2,   -0.1,   -0.1,   -0.0,   -0.0,    0.1,   -0.1,   -0.2,   -0.1,  999.0,  999.0,   -0.0,   -0.0,   -0.2,  999.0,  999.0,  999.0,  999.0,  999.0,  999.0,  999.0,  999.0,  999.0,  999.0,  999.0,  999.0,  999.0,  999.0,  999.0,  999.0,  999.0
2000/05/31 11:30,   -0.2,    0.1,    0.3,    0.2,    0.3,    0.2,    0.2,    0.3,    0.3,    0.2,    0.1,    0.1,    0.1,   -0.4,   -0.1,   -0.5,   -0.4,   -0.3,   -0.2,   -0.1,   -0.1,   -0.1,   -0.3,   -0.2,  999.0,    0.1,  999.0,    0.1,   -0.1,   -0.3,   -0.6,   -0.4,   -0.3,  999.0,  999.0,  999.0,  999.0,  999.0,  999.0,  999.0,  999.0,  999.0,  999.0,  999.0,  999.0,  999.0
2000/05/31 11:40,   -0.6,   -0.7,   -0.3,   -0.5,    0.1,   -0.2,   -0.1,   -0.4,   -0.2,   -0.4,   -0.3,   -0.4,   -0.3,   -0.4,   -0.4,   -0.4,   -0.2,   -0.1,   -0.1,   -0.1,   -0.0,   -0.2,   -0.3,   -0.1,   -0.0,   -0.3,   -0.6,   -0.7,   -0.7,   -0.6,   -0.5,   -0.4,   -0.2,   -0.0,   -0.1,  999.0,  999.0,  999.0,  999.0,  999.0,  999.0,  999.0,  999.0,  999.0,  999.0,  999.0
2000/05/31 11:50,   -1.8,   -1.2,   -1.1,   -1.3,   -1.0,   -1.3,   -1.1,   -1.2,   -0.8,   -0.5,   -0.5,   -0.3,    0.0,   -0.1,   -0.3,   -0.2,    0.1,   -0.2,    0.1,    0.1,   -0.2,   -0.2,   -0.5,   -0.6,   -0.9,   -0.8,   -1.0,   -0.8,   -0.8,   -0.8,   -0.7,   -0.5,   -0.4,  999.0,  999.0,  999.0,  999.0,  999.0,  999.0,  999.0,  999.0,  999.0,  999.0,  999.0,  999.0,  999.0
2000/05/31 12:00,   -3.2,   -2.4,   -2.5,   -1.9,   -2.3,   -2.5,   -3.2,   -2.6,   -2.4,   -2.3,   -1.9,   -1.9,   -1.7,   -1.3,   -1.3,   -1.2,   -1.2,   -0.9,   -1.2,   -1.2,   -0.7,   -0.6,   -0.8,   -1.0,   -1.0,   -0.9,   -0.9,   -1.1,   -1.1,   -1.0,   -0.8,   -0.6,   -0.3,    0.2,  999.0,  999.0,  999.0,  999.0,  999.0,  999.0,  999.0,  999.0,  999.0,  999.0,  999.0,  999.0
2000/05/31 12:10,   -6.0,   -5.2,   -4.6,   -4.8,   -4.8,   -5.6,   -5.3,   -5.3,   -5.5,   -5.9,   -5.7,   -5.9,   -5.8,   -5.8,   -5.7,   -5.7,   -5.8,   -5.3,   -3.6,   -2.3,   -1.7,   -1.6,   -1.5,   -1.2,   -1.1,   -1.0,   -0.9,   -0.9,   -0.9,   -0.8,   -0.7,   -0.6,   -0.5,   -0.5,  999.0,  999.0,  999.0,  999.0,  999.0,  999.0,  999.0,  999.0,  999.0,  999.0,  999.0,  999.0
2000/05/31 12:20,   -5.1,   -5.2,   -5.1,   -5.6,   -5.7,   -5.9,   -6.1,   -6.3,   -6.2,   -6.4,   -6.8,   -7.4,   -7.2,   -7.7,   -7.8,   -7.8,   -6.5,   -4.8,   -2.7,   -2.1,   -1.7,   -1.5,   -1.3,   -1.1,   -1.2,   -1.4,   -1.6,   -1.5,   -1.4,   -1.3,   -1.1,   -0.9,   -0.6,   -0.4,  999.0,  999.0,  999.0,  999.0,  999.0,  999.0,  999.0,  999.0,  999.0,  999.0,  999.0,  999.0
2000/05/31 12:30,   -5.7,   -5.3,   -5.0,   -5.0,   -5.3,   -5.3,   -5.4,   -5.6,   -5.6,   -5.8,   -5.7,   -5.7,   -5.9,   -6.0,   -5.9,   -6.1,   -6.1,   -3.4,   -2.4,   -2.0,   -2.0,   -2.0,   -2.2,   -2.0,   -2.0,   -2.0,   -1.9,   -1.7,   -1.7,   -1.6,   -1.3,   -1.0,   -0.7,   -0.8,   -0.9,   -1.2,   -1.1,  999.0,  999.0,  999.0,  999.0,  999.0,  999.0,  999.0,  999.0,  999.0
2000/05/31 12:40,   -6.1,   -5.4,   -5.0,   -5.3,   -5.4,   -5.5,   -5.7,   -5.7,   -5.8,   -5.7,   -5.7,   -5.8,   -5.8,   -6.1,   -6.1,   -6.4,   -6.4,   -4.3,   -2.1,   -1.6,   -1.5,   -1.5,   -1.6,   -1.5,   -1.3,   -1.3,   -1.2,   -1.2,   -1.1,   -1.0,   -1.0,   -0.9,   -0.8,   -0.9,   -0.9,   -0.9,   -0.9,   -0.9,   -0.9,   -0.9,   -0.8,   -0.5,   -0.1,  999.0,  999.0,  999.0
2000/05/31 12:50,   -5.0,   -4.8,   -4.6,   -4.5,   -4.7,   -5.1,   -5.2,   -5.3,   -5.4,   -5.5,   -5.6,   -5.7,   -6.2,   -6.2,   -6.4,   -6.4,   -5.8,   -3.2,   -1.9,   -1.4,   -1.4,   -1.4,   -1.4,   -1.3,   -1.3,   -1.2,   -1.1,   -1.1,   -1.0,   -0.9,   -0.8,   -0.7,   -0.5,   -0.6,   -0.8,   -0.9,   -0.7,   -0.8,   -0.9,   -0.7,  999.0,  999.0,  999.0,  999.0,  999.0,  999.0
2000/05/31 13:00,   -5.3,   -4.8,   -4.6,   -4.7,   -5.0,   -5.2,   -5.3,   -5.5,   -5.4,   -5.6,   -5.7,   -5.7,   -6.0,   -5.9,   -6.0,   -5.9,   -6.0,   -4.0,   -2.0,   -1.5,   -1.4,   -1.4,   -1.3,   -1.2,   -1.2,   -1.1,   -1.0,   -1.1,   -1.0,   -1.0,   -0.9,   -0.8,   -0.9,   -1.0,   -1.0,   -1.2,   -1.2,   -1.0,   -0.9,   -0.7,   -0.8,   -0.5,   -0.4,  999.0,  999.0,  999.0
2000/05/31 13:10,   -5.7,   -5.3,   -5.0,   -5.0,   -5.2,   -5.3,   -5.4,   -5.6,   -5.6,   -5.7,   -5.8,   -5.9,   -5.9,   -6.0,   -6.1,   -6.1,   -5.6,   -3.3,   -1.9,   -1.4,   -1.3,   -1.3,   -1.2,   -1.2,   -1.2,   -1.2,   -1.1,   -1.1,   -1.0,   -1.1,   -1.0,   -1.0,   -1.1,   -1.1,   -1.1,   -1.0,   -0.9,   -0.7,   -0.7,   -0.7,   -0.8,   -0.7,   -0.7,   -0.6,   -0.5,   -0.4
2000/05/31 13:20,   -4.8,   -5.0,   -4.9,   -4.7,   -5.0,   -5.1,   -5.3,   -5.2,   -5.3,   -5.4,   -5.5,   -5.0,   -5.0,   -5.1,   -5.1,   -5.2,   -5.0,   -3.1,   -1.8,   -1.6,   -1.6,   -1.6,   -1.6,   -1.6,   -1.7,   -1.6,   -1.6,   -1.4,   -1.2,   -1.1,   -0.9,   -0.9,   -0.8,   -0.8,   -0.8,   -0.9,   -0.8,   -0.8,   -0.8,   -0.7,   -0.7,   -0.7,   -0.6,   -0.6,   -0.6,   -0.6
2000/05/31 13:30,   -5.2,   -5.0,   -4.6,   -4.5,   -4.5,   -4.7,   -4.8,   -5.1,   -5.1,   -5.3,   -5.3,   -5.3,   -5.4,   -5.5,   -5.7,   -5.7,   -5.8,   -2.9,   -1.8,   -1.5,   -1.4,   -1.4,   -1.5,   -1.5,   -1.5,   -1.6,   -1.5,   -1.5,   -1.5,   -1.4,   -1.2,   -1.0,   -0.7,   -0.7,   -1.0,   -0.9,   -0.8,   -0.8,   -0.7,   -0.8,   -0.7,   -0.7,   -0.7,   -0.7,   -0.5,   -0.4
2000/05/31 13:40,   -6.5,   -5.4,   -4.9,   -4.8,   -4.5,   -4.2,   -4.2,   -4.0,   -4.2,   -3.9,   -3.9,   -4.1,   -4.2,   -4.3,   -4.4,   -4.5,   -4.5,   -4.2,   -2.0,   -1.2,   -1.2,   -1.2,   -1.3,   -1.3,   -1.3,   -1.3,   -1.2,   -1.2,   -1.1,   -0.9,   -0.8,   -0.8,   -0.7,   -0.8,   -0.9,   -0.9,   -0.9,   -0.9,   -0.8,   -0.8,   -0.7,   -0.7,   -0.7,   -0.7,   -0.6,   -0.4
2000/05/31 13:50,   -5.2,   -5.3,   -4.9,   -4.8,   -5.0,   -4.7,   -5.1,   -4.9,   -4.8,   -4.5,   -4.6,   -4.6,   -4.2,   -3.6,   -4.3,   -2.7,   -3.4,   -4.1,   -3.1,   -1.7,   -1.4,   -1.3,   -1.4,   -1.3,   -1.3,   -1.2,   -1.3,   -1.2,   -1.1,   -0.9,   -0.8,   -0.7,   -0.6,   -0.6,   -0.7,   -0.8,   -0.7,   -0.7,   -0.7,   -0.7,   -0.6,   -0.7,   -0.8,   -0.6,   -0.7,   -0.5
2000/05/31 14:00,   -6.3,   -6.2,   -6.3,   -6.3,   -6.2,   -6.1,   -6.0,   -6.0,   -6.2,   -6.3,   -6.3,   -6.2,   -6.3,   -6.7,   -6.9,   -7.0,   -7.0,   -6.2,   -4.1,   -2.7,   -2.3,   -1.8,   -1.4,   -1.4,   -1.2,   -1.0,   -0.9,   -0.9,   -0.9,   -0.9,   -0.9,   -0.7,   -0.7,   -0.8,   -0.9,   -0.9,   -0.8,   -0.8,   -0.9,   -0.8,   -0.8,   -0.7,   -0.7,   -0.8,   -0.7,   -0.5
2000/05/31 14:10,   -6.2,   -6.2,   -6.3,   -6.3,   -6.4,   -6.6,   -6.7,   -6.8,   -7.0,   -7.1,   -7.2,   -7.3,   -7.5,   -7.6,   -7.9,   -7.9,   -7.6,   -5.2,  999.0,   -2.1,   -1.6,   -1.4,   -1.3,   -1.2,   -1.1,   -1.0,   -1.0,   -0.9,   -1.0,   -1.0,   -1.0,   -0.9,   -0.9,   -0.9,   -1.0,   -1.1,   -1.1,   -1.0,   -1.1,   -1.0,   -0.9,   -0.7,   -0.8,   -0.8,   -0.8,   -0.5
2000/05/31 14:20,   -6.3,   -6.2,   -6.2,   -6.2,   -6.3,   -6.1,   -6.2,   -6.3,   -6.5,   -6.6,   -6.8,   -6.8,   -7.0,   -6.9,   -7.2,   -7.3,   -7.2,   -4.8,   -2.5,   -1.9,   -1.7,   -1.7,   -1.5,   -1.5,   -1.4,   -1.3,   -1.3,   -1.3,   -1.2,   -1.1,   -1.0,   -0.9,   -0.9,   -0.9,   -0.9,   -1.0,   -0.9,   -0.9,   -0.9,   -0.9,   -0.8,   -0.8,   -0.8,   -0.7,   -0.7,   -0.6
2000/05/31 14:30,   -6.1,   -6.0,   -6.0,   -6.0,   -6.5,   -6.4,   -6.0,   -5.8,   -6.5,   -6.2,   -6.3,   -6.2,   -6.3,   -6.6,   -6.8,   -6.7,   -6.4,   -5.3,   -2.9,   -1.9,   -1.8,   -1.7,   -1.6,   -1.6,   -1.4,   -1.3,   -1.2,   -1.1,   -1.1,   -1.0,   -1.0,   -0.9,   -0.9,   -0.9,   -1.0,   -1.0,   -1.0,   -0.9,   -0.9,   -0.8,   -0.7,   -0.7,   -0.7,   -0.7,   -0.6,   -0.6
2000/05/31 14:40,   -6.1,   -6.0,   -6.0,   -6.0,   -6.1,   -6.2,   -6.3,   -6.4,   -6.4,   -6.5,   -6.5,   -6.7,   -6.6,   -6.8,   -6.6,   -6.8,   -6.6,   -4.9,   -3.7,   -3.0,   -2.5,   -2.2,   -1.8,   -1.6,   -1.3,   -1.2,   -1.2,   -1.1,   -1.1,   -1.0,   -1.0,   -1.0,   -1.0,   -1.0,   -1.0,   -1.0,   -0.9,   -0.9,   -0.9,   -0.8,   -0.8,   -0.8,   -0.7,   -0.7,   -0.6,   -0.6
2000/05/31 14:50,   -5.9,   -5.7,   -5.6,   -5.7,   -5.7,   -5.8,   -5.7,   -5.8,   -5.9,   -6.0,   -5.9,   -6.1,   -6.1,   -6.3,   -6.4,   -6.5,   -6.5,   -4.5,   -2.4,   -1.7,   -1.5,   -1.4,   -1.4,   -1.4,   -1.3,   -1.3,   -1.2,   -1.1,   -1.1,   -1.1,   -1.1,   -1.1,   -1.1,   -1.1,   -1.1,   -1.1,   -1.1,   -1.0,   -1.0,   -1.0,   -1.0,   -1.0,   -1.0,   -0.9,   -0.9,   -0.8
2000/05/31 15:00,   -6.1,   -6.1,   -6.1,   -6.1,   -6.1,   -6.0,   -6.1,   -6.2,   -6.3,   -6.4,   -6.4,   -6.5,   -6.6,   -6.8,   -6.8,   -6.9,   -6.5,   -4.3,   -2.5,   -1.8,   -1.6,   -1.5,   -1.4,   -1.4,   -1.3,   -1.3,   -1.2,   -1.2,   -1.1,   -1.1,   -1.2,   -1.1,   -1.2,   -1.2,   -1.3,   -1.3,   -1.3,   -1.3,   -1.3,   -1.2,   -1.2,   -1.1,   -1.0,   -0.9,   -0.8,   -0.8
2000/05/31 15:10,   -6.4,   -6.3,   -6.3,   -6.3,   -6.3,   -6.3,   -6.1,   -6.2,   -6.0,   -6.0,   -6.2,   -6.2,   -6.3,   -6.4,   -6.5,   -6.6,   -6.3,   -4.2,   -2.5,   -1.7,   -1.6,   -1.5,   -1.4,   -1.4,   -1.3,   -1.3,   -1.3,   -1.3,   -1.3,   -1.2,   -1.2,   -1.2,   -1.3,   -1.3,   -1.3,   -1.2,   -1.2,   -1.1,   -1.1,   -1.0,   -1.0,   -0.9,   -0.9,   -0.8,   -0.8,   -0.7
2000/05/31 15:20,   -6.1,   -5.9,   -5.9,   -5.9,   -5.9,   -6.0,   -6.1,   -6.2,   -6.3,   -6.4,   -6.3,   -6.3,   -6.4,   -6.5,   -6.5,   -6.3,   -6.1,   -3.8,   -2.4,   -1.8,   -1.3,   -1.4,   -1.4,   -1.4,   -1.3,   -1.2,   -1.2,   -1.2,   -1.2,   -1.2,   -1.2,   -1.2,   -1.2,   -1.1,   -1.1,   -1.0,   -1.0,   -1.0,   -0.9,   -0.8,   -0.8,   -0.8,   -0.8,   -0.8,   -0.8,   -0.8
2000/05/31 15:30,   -6.3,   -6.1,   -6.2,   -6.2,   -6.1,   -6.1,   -6.1,   -6.1,   -6.3,   -6.3,   -6.3,   -6.4,   -6.4,   -6.4,   -6.5,   -6.5,   -5.9,   -3.9,   -2.5,   -2.0,   -1.7,   -1.6,   -1.5,   -1.4,   -1.3,   -1.2,   -1.2,   -1.2,   -1.2,   -1.2,   -1.2,   -1.2,   -1.1,   -1.1,   -1.1,   -1.1,   -1.1,   -1.1,   -1.0,   -1.0,   -1.1,   -1.1,   -1.1,   -1.0,   -0.9,   -0.9
2000/05/31 15:40,   -5.8,   -5.8,   -5.9,   -6.0,   -5.9,   -6.1,   -6.0,   -5.9,   -6.1,   -6.3,   -6.4,   -6.4,   -6.5,   -6.5,   -6.5,   -6.5,   -5.7,   -3.2,   -2.3,   -1.8,   -1.6,   -1.5,   -1.4,   -1.4,   -1.3,   -1.3,   -1.2,   -1.2,   -1.2,   -1.2,   -1.1,   -1.2,   -1.2,   -1.2,   -1.2,   -1.2,   -1.2,   -1.3,   -1.2,   -1.1,   -1.1,   -1.0,   -0.9,   -0.8,   -0.7,   -0.5
2000/05/31 15:50,   -6.7,   -6.8,   -6.8,   -6.8,   -6.8,   -6.8,   -6.7,   -6.7,   -6.8,   -6.8,   -7.0,   -6.9,   -6.9,   -7.0,   -7.1,   -7.0,   -5.9,   -3.4,   -2.3,   -1.7,   -1.5,   -1.4,   -1.4,   -1.4,   -1.3,   -1.3,   -1.2,   -1.2,   -1.1,   -1.1,   -1.1,   -1.1,   -1.0,   -1.1,   -1.0,   -1.0,   -0.9,   -1.0,   -1.0,   -1.0,   -1.0,   -0.9,   -0.9,   -0.8,   -0.7,   -0.5
2000/05/31 16:00,   -6.2,   -6.4,   -6.3,   -6.3,   -6.3,   -6.3,   -6.4,   -6.5,   -6.5,   -6.6,   -6.6,   -6.6,   -6.7,   -6.8,   -6.7,   -6.8,   -5.2,   -3.0,   -2.1,   -1.7,   -1.5,   -1.5,   -1.4,   -1.4,   -1.4,   -1.3,   -1.3,   -1.3,   -1.2,   -1.2,   -1.1,   -1.1,   -1.1,   -1.0,   -1.0,   -1.0,   -1.0,   -1.0,   -0.9,   -0.8,   -0.8,   -0.7,   -0.7,   -0.6,   -0.6,   -0.6
2000/05/31 16:10,   -5.6,   -6.5,   -6.2,   -5.4,   -5.2,   -5.5,   -5.6,   -5.5,   -5.3,   -5.4,   -5.3,   -5.1,   -5.1,   -5.1,   -5.0,   -4.9,   -4.9,   -2.9,   -1.8,   -1.7,   -1.7,   -1.5,   -1.5,   -1.5,   -1.5,   -1.5,   -1.5,   -1.4,   -1.4,   -1.3,   -1.2,   -1.2,   -1.2,   -1.1,   -1.1,   -1.1,   -1.0,   -1.0,   -0.9,   -0.9,   -0.8,   -0.7,   -0.7,   -0.6,   -0.6,   -0.6
2000/05/31 16:20,   -5.1,   -5.2,   -4.7,   -4.8,   -4.8,   -4.6,   -4.6,   -4.7,   -4.7,   -4.7,   -4.6,   -4.5,   -4.4,   -4.4,   -4.3,   -4.5,   -4.7,   -3.0,   -1.8,   -1.4,   -1.3,   -1.1,   -1.0,   -0.9,   -1.0,   -1.0,   -1.1,   -1.2,   -1.3,   -1.2,   -1.2,   -1.2,   -1.2,   -1.2,   -1.1,   -1.1,   -1.1,   -1.0,   -1.0,   -1.0,   -0.9,   -0.8,   -0.8,   -0.7,   -0.7,   -0.7
2000/05/31 16:30,   -4.6,  999.0,   -4.5,   -4.4,   -4.3,   -4.1,   -4.1,   -4.0,   -4.0,   -4.0,   -4.0,   -3.9,   -3.9,   -3.9,   -3.9,   -4.0,   -4.0,   -2.7,   -1.7,   -1.4,   -1.2,   -1.1,   -1.1,   -1.0,   -1.0,   -1.0,   -1.0,   -1.0,   -1.0,   -1.1,   -1.1,   -1.0,   -1.0,   -0.9,   -0.9,   -0.9,   -0.9,   -0.9,   -0.8,   -0.8,   -0.8,   -0.8,   -0.8,   -0.7,   -0.7,   -0.6
2000/05/31 16:40,   -5.1,   -5.2,   -5.1,   -5.2,   -5.4,   -5.3,   -5.4,   -5.4,   -5.4,   -5.3,   -5.4,   -5.6,   -5.6,   -5.9,   -5.8,   -5.7,   -5.8,   -3.1,   -1.9,   -1.7,   -1.4,   -1.2,   -1.0,   -0.9,   -0.9,   -0.9,   -0.9,   -0.9,   -0.9,   -0.9,   -1.0,   -1.0,   -1.0,   -0.9,   -0.9,   -0.9,   -0.9,   -0.8,   -0.8,   -0.8,   -0.8,   -0.8,   -0.7,   -0.7,   -0.7,   -0.6
2000/05/31 16:50,   -6.1,   -6.4,   -6.4,   -6.5,   -6.6,   -6.6,   -6.7,   -6.9,   -6.9,   -6.9,   -6.8,   -6.7,   -6.6,   -6.5,   -6.6,   -6.3,   -6.0,   -4.0,   -3.1,   -1.9,   -2.0,   -1.7,   -1.1,   -1.0,   -1.0,   -1.0,   -1.0,   -1.0,   -1.1,   -1.1,   -1.1,   -1.1,   -1.0,   -1.0,   -0.9,   -0.9,   -0.8,   -0.7,   -0.6,   -0.6,   -0.6,   -0.5,   -0.6,   -0.5,   -0.5,   -0.4
2000/05/31 17:00,   -5.6,   -5.8,   -5.7,   -5.5,   -5.3,   -5.3,   -5.3,   -5.4,   -5.5,   -5.5,   -5.6,   -5.6,   -5.6,   -5.6,   -5.5,   -5.4,   -5.3,   -3.8,   -2.2,   -1.6,   -1.5,   -1.3,   -1.3,   -1.3,   -1.3,   -1.2,   -1.2,   -1.1,   -1.1,   -1.1,   -1.1,   -1.0,   -1.0,   -1.0,   -1.0,   -1.0,   -0.9,   -0.9,   -0.9,   -0.8,   -0.7,   -0.7,   -0.7,   -0.6,   -0.6,   -0.6
2000/05/31 17:10,   -5.2,   -5.0,   -5.1,   -4.7,   -4.9,   -4.8,   -4.6,   -4.6,   -4.6,   -4.7,   -4.9,   -4.9,   -4.8,   -4.8,   -4.8,   -4.8,   -4.6,   -2.8,   -1.8,   -1.5,   -1.4,   -1.3,   -1.3,   -1.3,   -1.2,   -1.2,   -1.2,   -1.1,   -1.1,   -1.1,   -1.1,   -1.0,   -1.0,   -1.0,   -0.9,   -0.9,   -0.9,   -1.0,   -0.9,   -0.9,   -0.9,   -0.9,   -0.8,   -0.7,   -0.7,   -0.6
2000/05/31 17:20,   -5.3,   -5.4,   -5.4,   -5.4,   -5.4,   -5.5,   -5.6,   -5.6,   -5.6,   -5.6,   -5.6,   -5.6,   -5.7,   -5.8,   -5.9,   -5.8,   -4.9,   -2.3,   -1.7,   -1.5,   -1.3,   -1.3,   -1.3,   -1.3,   -1.2,   -1.3,   -1.3,   -1.2,   -1.2,   -1.1,   -1.0,   -1.0,   -1.0,   -1.1,   -1.1,   -1.1,   -1.1,   -1.1,   -1.0,   -0.9,   -0.9,   -0.9,   -0.8,   -0.8,   -0.7,   -0.6
2000/05/31 17:30,   -5.5,   -5.5,   -5.4,   -5.4,   -5.4,   -5.4,   -5.4,   -5.5,   -5.6,   -5.5,   -5.6,   -5.6,   -5.6,   -5.6,   -5.5,   -5.4,   -4.2,   -2.5,   -1.8,   -1.5,   -1.5,   -1.5,   -1.4,   -1.3,   -1.2,   -1.2,   -1.2,   -1.3,   -1.3,   -1.2,   -1.2,   -1.2,   -1.2,   -1.2,   -1.2,   -1.2,   -1.1,   -1.1,   -1.0,   -0.9,   -0.8,   -0.8,   -0.8,   -0.7,   -0.6,   -0.6
2000/05/31 17:40,   -5.3,   -5.2,   -5.2,   -5.1,   -5.1,   -5.2,   -5.3,   -5.4,   -5.5,   -5.4,   -5.4,   -5.5,   -5.5,   -5.5,   -5.5,   -5.3,   -4.2,   -2.8,   -2.0,   -1.6,   -1.5,   -1.4,   -1.4,   -1.3,   -1.2,   -1.2,   -1.2,   -1.2,   -1.1,   -1.1,   -1.1,   -1.1,   -1.1,   -1.1,   -1.1,   -1.1,   -1.0,   -0.9,   -0.9,   -0.9,   -0.8,   -0.8,   -0.7,   -0.7,   -0.6,   -0.6
2000/05/31 17:50,   -5.5,   -5.4,   -5.4,   -5.2,   -5.3,   -5.4,   -5.4,   -5.4,   -5.5,   -5.5,   -5.5,   -5.6,   -5.6,   -5.6,   -5.6,   -5.5,   -3.9,   -2.4,   -1.8,   -1.6,   -1.5,   -1.4,   -1.3,   -1.3,   -1.3,   -1.3,   -1.3,   -1.2,   -1.1,   -1.0,   -1.0,   -1.0,   -1.0,   -1.1,   -1.1,   -1.1,   -1.0,   -1.0,   -0.9,   -0.9,   -0.8,   -0.8,   -0.8,   -0.7,   -0.6,   -0.5
2000/05/31 18:00,   -5.6,   -5.5,   -5.5,   -5.5,   -5.7,   -5.8,   -5.9,   -6.0,   -6.1,   -6.2,   -6.2,   -6.3,   -6.3,   -6.2,   -6.1,   -6.1,   -5.1,   -2.8,   -1.8,   -1.6,   -1.5,   -1.4,   -1.4,   -1.3,   -1.2,   -1.3,   -1.2,   -1.2,   -1.2,   -1.2,   -1.1,   -1.2,   -1.2,   -1.2,   -1.2,   -1.1,   -1.1,   -1.1,   -1.0,   -1.0,   -0.9,   -0.8,   -0.7,   -0.6,   -0.6,   -0.6
2000/05/31 18:10,   -5.4,   -5.0,   -5.0,   -4.8,   -4.8,   -4.7,   -4.7,   -4.9,   -4.9,   -4.8,   -4.8,   -4.8,   -4.8,   -4.8,   -5.0,   -5.0,   -3.9,   -2.1,   -1.6,   -1.5,   -1.5,   -1.5,   -1.4,   -1.4,   -1.3,   -1.3,   -1.2,   -1.2,   -1.1,   -1.1,   -1.1,   -1.0,   -1.0,   -1.0,   -1.0,   -1.1,   -1.0,   -0.9,   -0.9,   -0.9,   -0.9,   -0.9,   -0.8,   -0.9,   -0.8,   -0.7
2000/05/31 18:20,   -5.0,   -4.9,   -4.9,   -4.8,   -4.8,   -4.7,   -4.7,   -4.8,   -4.9,   -5.0,   -5.0,   -5.1,   -4.9,   -5.2,   -5.2,   -5.1,   -4.5,   -2.4,   -1.7,   -1.5,   -1.5,   -1.4,   -1.4,   -1.3,   -1.3,   -1.3,   -1.1,   -1.1,   -1.0,   -1.0,   -1.1,   -1.1,   -1.1,   -1.0,   -1.0,   -1.0,   -0.9,   -0.8,   -0.8,   -0.8,   -0.7,   -0.7,   -0.6,   -0.6,   -0.5,   -0.6
2000/05/31 18:30,   -5.9,   -5.5,   -5.6,   -5.4,   -5.4,   -5.6,   -5.9,   -5.8,   -5.7,   -5.6,   -5.5,   -5.8,   -6.0,   -6.2,   -6.1,   -6.1,   -4.5,   -2.5,   -1.7,   -1.5,   -1.4,   -1.4,   -1.4,   -1.2,   -1.2,   -1.1,   -1.1,   -1.1,   -1.0,   -0.9,   -1.0,   -1.0,   -1.0,   -1.0,   -0.9,   -0.9,   -0.8,   -0.7,   -0.7,   -0.7,   -0.7,   -0.7,   -0.6,   -0.6,   -0.6,   -0.5
2000/05/31 18:40,   -5.6,   -5.5,   -5.5,   -5.5,   -5.6,   -5.7,   -5.7,   -5.7,   -5.8,   -5.8,   -5.8,   -5.9,   -6.0,   -6.0,   -6.0,   -6.1,   -4.9,   -2.6,   -1.9,   -1.6,   -1.5,   -1.4,   -1.3,   -1.3,   -1.2,   -1.2,   -1.1,   -1.0,   -1.0,   -1.0,   -1.0,   -0.9,   -1.0,   -0.9,   -0.9,   -0.9,   -0.9,   -0.8,   -0.8,   -0.7,   -0.7,   -0.7,   -0.7,   -0.6,   -0.6,   -0.6
2000/05/31 18:50,   -5.7,   -5.7,   -5.6,   -5.6,   -5.6,   -5.7,   -5.6,   -5.6,   -5.5,   -5.4,   -5.4,   -5.7,   -5.7,   -5.7,   -5.8,   -5.9,   -4.1,   -2.3,   -1.8,   -1.5,   -1.3,   -1.3,   -1.2,   -1.3,   -1.2,   -1.2,   -1.2,   -1.2,   -1.1,   -1.1,   -1.1,   -1.1,   -1.0,   -1.0,   -0.9,   -0.9,   -0.8,   -0.8,   -0.7,   -0.8,   -0.8,   -0.7,   -0.7,   -0.7,  999.0,  999.0
2000/05/31 19:00,   -5.8,   -5.4,   -5.2,   -5.1,   -5.2,   -5.2,   -5.2,   -5.3,   -5.2,   -5.1,   -5.1,   -5.1,   -5.2,   -5.2,   -5.0,   -5.2,   -4.7,   -2.2,   -1.5,   -1.4,   -1.3,   -1.2,   -1.2,   -1.2,   -1.2,   -1.2,   -1.1,   -1.1,   -1.1,   -1.1,   -1.1,   -1.1,   -1.1,   -1.1,   -1.0,   -1.0,   -1.0,   -1.0,   -1.2,   -1.0,   -0.9,   -0.7,  999.0,  999.0,  999.0,  999.0
2000/05/31 19:10,   -4.9,   -5.0,   -4.8,   -5.2,   -5.0,   -5.3,   -5.2,   -5.2,   -5.1,   -4.9,   -4.6,   -4.5,   -4.6,   -4.7,   -4.4,   -4.4,   -3.7,   -2.2,   -1.6,   -1.2,   -1.1,   -0.9,   -0.7,   -1.0,   -0.6,   -0.9,   -0.9,   -1.0,   -1.1,   -0.9,   -1.0,   -1.0,   -1.0,   -1.1,   -1.1,   -1.0,  999.0,  999.0,  999.0,  999.0,  999.0,  999.0,  999.0,   -1.0,  999.0,   -0.8
2000/05/31 19:20,   -5.3,   -5.4,   -5.0,   -5.2,   -4.9,   -4.6,   -4.2,   -3.8,   -3.8,   -4.8,   -4.0,   -3.6,   -3.7,   -3.4,   -3.1,   -3.2,   -3.8,   -2.0,   -1.1,   -1.0,   -0.9,   -0.8,   -0.8,   -0.8,  999.0,   -0.8,  999.0,   -1.1,   -1.0,   -0.9,  999.0,  999.0,  999.0,   -0.8,   -0.9,   -0.8,   -1.0,   -1.0,   -1.0,  999.0,   -0.9,   -1.0,   -1.0,   -1.0,   -0.9,   -0.9
2000/05/31 19:30,   -3.7,   -3.8,   -3.7,   -3.7,   -3.4,   -3.3,   -3.3,   -3.3,   -2.9,   -2.9,   -2.7,   -2.5,   -2.6,   -2.7,   -2.6,   -2.4,   -2.3,   -1.9,   -1.3,   -1.0,   -0.9,   -0.8,   -0.7,   -0.9,   -0.9,   -0.9,   -1.0,   -1.2,   -1.2,   -1.2,   -1.1,   -1.0,   -0.9,   -0.9,   -0.9,   -0.9,   -0.9,   -1.0,   -0.8,   -0.9,   -0.9,   -0.9,   -0.8,   -0.8,   -0.8,   -0.8
2000/05/31 19:40,   -4.4,   -4.7,   -4.4,   -4.9,   -4.6,   -4.6,   -4.6,   -4.7,   -4.5,   -3.9,   -3.9,   -3.5,   -3.6,   -3.6,   -3.8,   -3.7,   -4.2,   -2.6,   -1.7,   -1.6,   -1.3,   -1.3,   -1.3,   -1.2,   -1.1,   -1.1,   -1.0,   -1.0,   -1.0,   -1.0,   -1.0,   -1.0,   -1.1,   -1.2,   -1.2,   -1.2,   -1.1,   -1.2,   -1.0,   -1.0,   -1.0,   -0.9,   -0.9,   -0.8,   -0.8,   -0.8
2000/05/31 19:50,  999.0,   -4.7,   -4.6,  999.0,   -5.4,   -5.4,   -4.9,   -4.5,   -5.0,   -5.5,   -5.8,   -5.6,   -5.0,   -5.3,   -5.4,   -5.3,   -4.9,   -2.1,   -1.6,   -1.5,   -1.4,   -1.4,   -1.3,   -1.3,   -1.3,   -1.2,   -1.2,   -1.0,   -1.0,   -1.0,   -0.8,   -0.8,   -0.8,   -0.8,   -0.7,  999.0,  999.0,  999.0,  999.0,   -0.9,   -0.9,   -0.8,   -0.8,   -0.9,   -0.6,  999.0
2000/05/31 20:00,   -4.5,   -4.6,   -4.7,  999.0,   -4.7,   -4.8,   -4.8,   -4.6,   -4.8,   -4.8,   -5.1,   -5.1,   -4.9,   -4.6,   -4.5,   -4.4,   -4.3,   -2.7,   -1.6,   -1.5,   -1.5,   -1.5,   -1.4,   -1.3,   -1.4,   -1.3,   -1.2,   -1.1,   -1.1,   -1.0,   -1.0,   -0.9,   -0.9,   -1.0,   -0.9,  999.0,  999.0,   -0.7,   -0.7,   -0.6,   -0.6,   -0.6,   -0.7,   -0.7,   -0.5,   -0.6
2000/05/31 20:10,   -4.9,   -5.0,   -4.7,   -5.2,   -5.0,   -4.7,   -4.7,   -4.7,   -4.6,   -4.5,   -4.5,   -4.5,   -4.6,   -4.8,   -4.9,   -5.0,   -4.8,   -2.6,   -1.8,   -1.4,   -1.4,   -1.2,   -1.1,   -1.1,   -1.2,   -1.1,   -1.1,   -1.1,   -1.1,   -1.0,   -1.0,   -1.0,   -1.0,   -0.9,   -0.9,   -0.9,   -0.7,   -0.7,   -0.8,   -0.7,   -0.8,   -0.7,   -0.6,   -0.7,  999.0,  999.0
2000/05/31 20:20,   -3.7,   -3.9,   -4.0,   -4.3,   -4.1,   -4.1,   -4.2,   -4.0,   -4.2,   -4.0,   -4.1,   -4.1,   -4.0,   -4.1,   -4.1,   -4.2,   -4.2,   -2.4,   -1.5,   -1.2,   -1.2,   -1.2,   -1.1,   -1.1,   -1.1,   -1.1,   -1.0,   -1.0,   -0.9,   -0.9,   -1.0,   -0.9,   -0.9,   -0.9,   -1.0,   -1.0,   -0.9,   -0.9,   -0.9,   -0.8,   -0.8,   -0.8,   -0.7,   -0.6,   -0.5,   -0.5
2000/05/31 20:30,   -5.5,   -5.5,   -5.4,   -5.6,   -5.7,   -5.9,   -5.9,   -5.7,   -6.1,   -6.2,   -6.2,   -6.4,   -6.3,   -6.3,   -6.4,   -6.5,   -6.1,   -2.9,   -1.9,   -1.7,   -1.5,   -1.4,   -1.3,   -1.2,   -1.2,   -1.1,   -1.1,   -1.0,   -1.0,   -1.0,   -0.9,   -0.9,   -0.9,   -0.9,   -0.9,   -0.9,   -0.8,   -0.9,   -0.8,   -0.8,   -0.8,   -0.8,   -0.8,   -0.7,   -0.7,   -0.6
2000/05/31 20:40,   -5.9,   -6.0,   -6.0,   -6.1,   -6.2,   -6.2,   -6.3,   -6.2,   -6.3,   -6.3,   -6.2,   -6.2,   -6.2,   -6.2,   -6.2,   -6.3,   -5.8,   -3.6,   -2.2,   -1.8,   -1.6,   -1.4,   -1.4,   -1.3,   -1.3,   -1.2,   -1.2,   -1.2,   -1.2,   -1.1,   -1.0,   -1.0,   -1.1,   -1.3,   -1.3,   -1.3,   -1.3,   -1.3,   -1.3,   -1.2,   -1.2,   -1.1,   -1.1,   -1.0,   -0.9,   -0.7
2000/05/31 20:50,   -4.8,   -4.9,   -5.0,   -4.9,   -5.1,   -5.0,   -5.0,   -5.0,   -5.0,   -4.9,   -4.8,   -4.8,   -4.7,   -4.7,   -4.7,   -4.7,   -4.9,   -2.8,   -1.7,   -1.5,   -1.5,   -1.3,   -1.3,   -1.3,   -1.3,   -1.3,   -1.3,   -1.3,   -1.3,   -1.2,   -1.0,   -1.0,   -1.1,   -1.4,   -1.4,   -1.5,   -1.4,   -1.4,   -1.3,   -1.3,   -1.3,   -1.2,   -1.1,   -1.0,   -0.9,   -0.8
2000/05/31 21:00,   -3.2,   -3.5,   -3.9,  999.0,   -3.9,   -4.4,   -4.5,   -4.2,   -4.4,   -4.2,   -4.3,   -4.5,   -4.5,   -4.5,   -4.5,   -4.4,   -4.4,   -2.8,   -1.7,   -1.5,   -1.5,   -1.4,   -1.4,   -1.3,   -1.4,   -1.3,   -1.3,   -1.2,   -1.2,   -1.1,   -1.1,   -1.1,   -1.2,   -1.3,   -1.3,   -1.2,   -1.2,   -1.2,   -1.1,   -1.0,   -1.1,   -1.0,   -0.8,   -0.7,   -0.6,   -0.7
2000/05/31 21:10,   -4.3,   -4.0,   -4.0,   -4.3,   -4.2,   -4.6,   -4.6,   -4.5,   -4.9,   -4.5,   -4.4,   -4.5,   -4.4,   -4.2,   -4.0,   -3.8,   -3.5,   -3.0,   -1.9,   -1.4,   -1.3,   -1.3,   -1.5,   -1.3,   -1.3,   -1.3,   -1.2,   -1.2,   -1.2,   -1.2,   -1.2,   -1.1,   -1.0,   -1.0,   -1.1,   -1.1,   -1.1,   -1.0,   -1.0,   -0.9,   -0.8,   -0.7,   -0.7,   -0.7,   -0.8,   -0.9
2000/05/31 21:20,   -3.3,   -3.2,   -3.1,   -3.1,   -3.5,   -3.1,   -3.4,   -3.4,   -3.7,   -3.7,   -3.9,   -4.3,   -4.3,   -4.5,   -4.3,   -4.4,   -3.6,   -3.2,   -1.7,   -1.2,   -1.2,   -1.3,   -1.4,   -1.4,   -1.4,   -1.4,   -1.4,   -1.4,   -1.3,   -1.3,   -1.2,   -1.2,   -1.2,   -1.3,   -1.3,   -1.3,   -1.2,   -1.1,   -1.1,   -1.0,   -1.0,   -0.9,   -0.8,   -0.8,   -0.6,   -0.7
2000/05/31 21:30,   -4.4,   -4.7,   -4.5,   -4.7,   -4.9,   -5.0,   -5.2,   -5.2,   -5.5,   -5.6,   -5.1,   -5.1,   -5.0,   -4.8,   -5.2,   -4.4,   -4.9,   -4.0,   -2.2,   -1.5,   -1.4,   -1.4,   -1.2,   -1.2,   -1.4,   -1.4,   -1.4,   -1.3,   -1.3,   -1.2,   -1.1,   -1.0,   -1.0,   -1.1,   -1.2,   -1.2,   -1.2,   -1.1,   -1.1,   -1.0,   -1.1,   -0.9,   -0.8,   -0.8,   -0.8,   -0.8
2000/05/31 21:40,   -5.8,   -5.8,   -5.9,   -6.0,   -5.9,   -5.8,   -5.2,   -5.5,   -5.9,   -6.2,   -6.1,   -6.3,   -6.3,   -6.3,   -6.5,   -6.4,   -6.3,   -3.9,   -2.3,   -1.7,   -1.5,   -1.4,   -1.3,   -1.3,   -1.3,   -1.3,   -1.3,   -1.2,   -1.1,   -1.1,   -1.0,   -0.9,   -1.0,   -1.1,   -1.2,   -1.1,   -1.1,   -1.0,   -1.0,   -0.9,   -0.8,   -0.8,   -0.7,   -0.7,   -0.8,   -0.6
2000/05/31 21:50,   -5.4,   -6.0,   -6.0,   -5.9,   -5.7,   -5.7,   -6.0,   -5.7,   -5.9,   -6.0,   -6.0,   -6.1,   -6.4,   -6.5,   -6.4,   -6.4,   -6.2,   -2.9,   -2.1,   -1.8,   -1.9,   -1.7,   -1.6,   -1.6,   -1.5,   -1.3,   -1.2,   -1.1,   -1.1,   -1.1,   -1.0,   -1.0,   -1.0,   -1.0,   -1.0,   -0.9,   -0.9,   -0.9,   -0.9,   -0.9,   -0.9,   -0.8,   -0.7,   -0.7,   -0.7,   -0.6
2000/05/31 22:00,   -5.0,   -4.9,   -4.7,   -4.6,  999.0,   -4.6,   -4.5,   -4.7,   -4.9,   -4.8,   -4.8,   -4.9,   -5.0,   -5.1,   -4.9,   -3.9,   -3.7,   -2.6,   -2.0,   -1.6,   -1.5,   -1.3,   -1.3,   -1.2,   -1.3,   -1.3,   -1.3,   -1.3,   -1.3,   -1.3,   -1.3,   -1.3,   -1.3,   -1.3,   -1.3,   -1.2,   -1.2,   -1.1,   -1.0,   -1.0,   -0.9,   -0.9,   -0.8,   -0.7,   -0.6,   -0.5
2000/05/31 22:10,   -5.4,   -5.1,   -5.2,   -5.0,   -4.9,   -5.0,   -5.0,   -5.1,   -5.0,   -5.0,   -5.2,   -5.5,   -5.6,   -5.9,   -5.9,   -4.1,   -3.3,   -2.6,   -2.3,   -1.9,   -1.6,   -1.2,   -1.2,   -1.1,   -1.2,   -1.1,   -1.1,   -1.1,   -1.0,   -1.0,   -1.1,   -1.0,   -1.0,   -1.0,   -1.0,   -1.0,   -1.0,   -1.0,   -0.9,   -0.8,   -0.7,   -0.8,   -0.7,   -0.6,   -0.5,   -0.5
2000/05/31 22:20,  999.0,   -3.9,  999.0,   -3.9,   -3.1,   -4.0,   -4.6,   -3.5,   -4.2,   -4.0,   -3.5,   -3.7,   -2.6,   -1.7,   -3.4,   -2.2,   -2.1,   -2.5,   -2.2,   -2.1,   -1.9,   -1.8,   -1.5,   -1.5,   -1.4,   -1.4,   -1.3,   -1.3,   -1.2,   -1.2,   -1.2,   -1.2,   -1.2,   -1.2,   -1.2,   -1.1,   -1.1,   -1.1,   -1.0,   -1.0,   -0.8,   -0.8,   -0.7,   -0.7,   -0.6,   -0.5
2000/05/31 22:30,  999.0,  999.0,  999.0,  999.0,   -3.1,   -1.4,  999.0,   -0.2,   -0.4,   -2.4,   -1.3,    0.0,    0.3,    0.3,   -0.4,   -0.9,   -2.0,   -2.2,   -2.0,   -1.9,   -1.8,   -1.3,   -1.2,   -1.3,   -1.3,   -1.2,   -1.3,   -1.3,   -1.2,   -1.2,   -1.2,   -1.1,   -1.2,   -1.2,   -1.2,   -1.2,   -1.1,   -1.1,   -1.1,   -1.1,   -1.0,   -0.9,   -0.8,   -0.8,   -0.7,   -0.5
2000/05/31 22:40,  999.0,  999.0,    0.1,  999.0,  999.0,    0.2,    0.0,    0.1,    0.4,    0.2,    0.3,    1.2,    0.9,    0.4,    0.3,   -0.9,   -1.4,   -1.5,   -1.8,   -1.6,   -1.5,   -1.5,   -1.4,   -1.4,   -1.4,   -1.4,   -1.3,   -1.3,   -1.2,   -1.2,   -1.1,   -1.1,   -1.2,   -1.2,   -1.1,   -1.1,   -1.2,   -1.2,   -1.2,   -1.1,   -1.1,   -1.1,   -1.0,   -0.7,   -0.6,   -0.7
2000/05/31 22:50,  999.0,  999.0,    0.4,  999.0,    0.0,   -0.1,  999.0,  999.0,    0.1,   -0.0,    0.2,   -0.0,   -0.1,    0.7,    0.7,    0.2,   -0.2,   -1.8,   -1.7,   -1.6,   -1.4,   -1.3,   -1.3,   -1.3,   -1.4,   -1.3,   -1.3,   -1.2,   -1.2,   -1.2,   -1.2,   -1.2,   -1.2,   -1.2,   -1.2,   -1.1,   -1.1,   -1.0,   -1.0,   -1.0,   -0.9,   -0.8,   -0.7,   -0.7,   -0.6,   -0.6
2000/05/31 23:00,  999.0,   -0.1,   -0.1,   -1.3,   -0.3,   -0.2,    0.1,    0.0,  999.0,    0.1,   -0.2,   -0.0,   -0.1,    0.1,   -0.4,   -0.4,   -1.6,   -2.1,   -1.6,   -1.4,   -1.3,   -1.2,   -1.2,   -1.2,   -1.1,   -1.1,   -1.0,   -0.9,   -0.9,   -0.9,   -0.8,   -0.9,   -0.9,   -1.0,   -0.9,   -1.0,   -1.0,   -1.0,   -0.9,   -0.9,   -0.8,   -0.8,   -0.8,   -0.7,   -0.7,   -0.7
2000/05/31 23:10,  999.0,   -0.1,   -0.5,   -0.6,   -0.1,   -0.0,  999.0,   -0.4,   -0.5,   -0.0,    0.4,    0.3,    0.3,    0.5,    0.2,    0.5,   -0.6,   -1.0,   -1.4,   -1.7,   -1.7,   -1.8,   -1.6,   -1.5,   -1.5,   -1.3,   -1.2,   -1.1,   -1.0,   -1.0,   -0.9,   -1.0,   -0.9,   -0.9,   -0.9,   -0.9,   -0.8,   -0.8,   -0.8,   -0.7,   -0.6,   -0.6,   -0.5,   -0.6,   -0.6,   -0.6
2000/05/31 23:20,   -0.5,   -0.3,  999.0,    0.6,   -0.5,    0.0,    0.1,   -0.2,   -0.0,   -0.2,    0.3,    0.1,    0.2,   -0.1,   -0.0,    0.3,    0.2,    0.0,    0.0,   -0.3,   -0.6,   -0.6,   -0.9,   -1.8,   -1.7,   -1.4,   -1.2,   -1.1,   -1.1,   -1.1,   -1.1,   -1.2,   -1.1,   -1.1,   -1.1,   -1.1,   -1.0,   -1.0,   -0.9,   -0.8,   -0.8,   -0.8,   -0.7,   -0.7,   -0.7,  999.0
2000/05/31 23:30,  999.0,   -0.0,    0.2,    0.7,    0.3,    0.0,   -0.6,   -0.4,    0.1,   -0.4,   -0.3,   -0.3,   -0.9,   -0.2,   -0.4,   -0.0,   -0.2,   -0.1,   -0.1,    0.1,   -0.4,   -0.1,   -0.4,   -0.5,   -1.8,   -1.7,   -1.5,   -1.5,   -1.4,   -1.2,   -1.1,   -1.0,   -1.0,   -1.1,   -1.1,   -1.0,   -0.9,   -0.9,   -0.9,   -0.8,   -0.9,   -0.8,   -0.7,   -0.7,   -0.6,   -0.5
2000/05/31 23:40,   -0.0,   -0.1,   -0.0,    0.4,    0.2,   -0.0,   -0.0,    0.2,   -0.2,    0.2,    0.0,   -0.0,  999.0,    0.0,   -0.1,   -0.3,   -0.2,   -0.6,   -0.8,   -0.0,   -0.6,    0.1,   -0.3,   -0.5,   -1.3,   -1.7,   -1.6,   -1.3,   -1.2,   -1.0,   -0.8,   -0.8,   -0.8,   -1.0,   -0.9,   -0.9,   -0.9,   -1.0,   -1.0,   -1.2,   -0.9,   -1.0,   -0.9,   -0.9,   -0.9,   -0.8
2000/05/31 23:50,  999.0,  999.0,  999.0,    0.0,    0.2,  999.0,    0.0,    0.3,   -0.4,   -0.2,   -0.2,    0.3,    0.3,    0.1,  999.0,    0.2,   -0.3,   -0.1,   -0.3,    0.0,   -0.6,   -0.3,   -0.2,   -0.2,   -2.1,   -1.8,   -1.7,   -1.0,   -1.0,   -1.0,   -0.8,   -0.8,   -0.7,   -0.9,   -1.0,   -1.0,   -0.9,   -0.9,   -0.8,   -0.7,   -0.7,   -0.7,   -0.5,   -0.5,   -0.4,   -0.2
